This is the latest recevied weather packets stored in our database for station/object K3RUP-1. If no packets are shown the sender has not sent any weather packets the latest 10 day(s).
| Time | Temp. | Humidity | Pressure | Rain* | Wind** | Luminosity | Snow |
|---|---|---|---|---|---|---|---|
| 1777607096 | 8.89° C | 80% | 1013.1 hPa | 0 mm | - | 0 W/m² | - |
| 1777606791 | 8.89° C | 79% | 1013.2 hPa | 0 mm | - | 0 W/m² | - |
| 1777606487 | 8.89° C | 79% | 1013 hPa | 0 mm | - | 0 W/m² | - |
| 1777606183 | 8.89° C | 79% | 1013.1 hPa | 0 mm | - | 0 W/m² | - |
| 1777605878 | 8.89° C | 78% | 1013 hPa | 0 mm | - | 0 W/m² | - |
| 1777605573 | 9.44° C | 78% | 1013 hPa | 0 mm | - | 0 W/m² | - |
| 1777605268 | 9.44° C | 77% | 1013 hPa | 0 mm | - | 0 W/m² | - |
| 1777604965 | 9.44° C | 76% | 1012.9 hPa | 0 mm | - | 0 W/m² | - |
| 1777604660 | 9.44° C | 75% | 1012.8 hPa | 0 mm | - | 0 W/m² | - |
| 1777604357 | 10° C | 75% | 1012.8 hPa | 0 mm | - | 0 W/m² | - |
| 1777604051 | 10° C | 75% | 1013 hPa | 0 mm | - | 0 W/m² | - |
| 1777603749 | 10.56° C | 75% | 1012.8 hPa | 0 mm | - | 0 W/m² | - |
| 1777603444 | 10.56° C | 74% | 1012.9 hPa | 0 mm | - | 0 W/m² | - |
| 1777603141 | 11.11° C | 72% | 1012.7 hPa | 0 mm | - | 0 W/m² | - |
| 1777602836 | 11.11° C | 69% | 1012.9 hPa | 0 mm | - | 0 W/m² | - |
| 1777602530 | 11.11° C | 68% | 1012.9 hPa | 0 mm | - | 0 W/m² | - |
| 1777602227 | 11.11° C | 67% | 1012.9 hPa | 0 mm | - | 0 W/m² | - |
| 1777601922 | 11.67° C | 67% | 1012.9 hPa | 0 mm | - | 0 W/m² | - |
| 1777601618 | 11.67° C | 65% | 1012.8 hPa | 0 mm | - | 0 W/m² | - |
| 1777601313 | 11.67° C | 64% | 1012.8 hPa | 0 mm | - | 0 W/m² | - |
| 1777601011 | 12.22° C | 63% | 1012.8 hPa | 0 mm | - | 0 W/m² | - |
| 1777600707 | 11.67° C | 63% | 1012.8 hPa | 0 mm | - | 0 W/m² | - |
| 1777600403 | 12.22° C | 65% | 1012.9 hPa | 0 mm | - | 0 W/m² | - |
| 1777600099 | 12.22° C | 63% | 1012.6 hPa | 0 mm | - | 0 W/m² | - |
| 1777599795 | 12.78° C | 63% | 1012.8 hPa | 0 mm | - | 0 W/m² | - |
* Rain latest hour (hover to see other rain measurements)
** Current wind speed in m/s (hover to see current wind gust speed)